Preview of NWS' New Version of Forecast
This preview is not operational and should not be used for support decisions.

Regional Weather Roundup (RWR)

Issued by Gray - Portland, ME (GYX)

                            
000
ASUS41 KGYX 221005
RWRGYX
WEATHER ROUNDUP FOR MAINE AND NEW HAMPSHIRE
NATIONAL WEATHER SERVICE GRAY ME
600 AM EDT FRI MAR 22 2019

MEZ002-005-006-010-012-015-018-020-021-024-026-027-029-221100-
MAINE
  
CITY           SKY/WX    TMP DP  RH WIND       PRES   REMARKS
PORTLAND       CLOUDY    36  32  85 NE12      29.67F                  
SANFORD        MIX PCPN  35  32  88 NE14      29.63F                  
BAR HARBOR     CLOUDY    34  28  79 NE9       29.74F                  
WISCASSET      CLOUDY    35  32  88 VRB6      29.70F                  
ROCKLAND       CLOUDY    35  32  88 NE10      29.69F                  
FRYEBURG       LGT SNOW  34  31  88 NE7       29.67F FOG              
LEWISTONAUBURN LGT RAIN  34  30  85 N12       29.68F                  
AUGUSTA        CLOUDY    33  29  85 NE9       29.72F                  
WATERVILLE     MOCLDY    33  29  85 NE6       29.70F                  
BANGOR         CLOUDY    33  28  81 NE7       29.75F                  
GREENVILLE       N/A     29  26  89 SE6       29.68F                  
MILLINOCKET    FAIR      31  27  85 E3        29.80F                  
HOULTON        MOCLDY    31  26  82 E5        29.77F                  
PRESQUE ISLE   FAIR      31  27  85 SE9       29.81F                  
FRENCHVILLE    LGT SNOW  31  27  85 SE10      29.75F FOG              
CARIBOU        CLOUDY    32  27  81 SE7       29.79F                  
$$

NHZ002-005-008-009-011-012-014-221100-
NEW HAMPSHIRE
  
CITY           SKY/WX    TMP DP  RH WIND       PRES   REMARKS
PORTSMOUTH     LGT RAIN  38  35  91 NE17G24   29.58F FOG              
ROCHESTER      CLOUDY    36  33  89 NE9G16    29.61F                  
NASHUA         LGT RAIN  36  36 100 NE9       29.54F                  
MANCHESTER     LGT RAIN  37  34  89 NE10G20   29.55F                  
CONCORD        LGT RAIN  36  34  92 NE7       29.59F                  
LACONIA        LGT RAIN  35  32  88 E17       29.61S                  
PLYMOUTH       LGT RAIN  37  32  84 CALM      29.60F                  
BERLIN         FLURRIES  34  29  82 SE3       29.64F                  
WHITEFIELD     NOT AVBL                                               
JAFFREY        LGT SNOW  34  34 100 MISG      29.49F FOG              
KEENE          LGT RAIN  36  33  89 NE7       29.51F                  
LEBANON        LGT SNOW  35  31  85 CALM      29.57F FOG              
MT WASHINGTON  SNOW      16  16 100 SE35        N/A  VSB 1/16WCI  -6  
$$

VTZ005-007-008-221100-
VERMONT
  
CITY           SKY/WX    TMP DP  RH WIND       PRES   REMARKS
ST JOHNSBURY     N/A     33  33 100 MISG      29.59F                  
MONTPELIER     LGT SNOW  32  32 100 N5        29.61F FOG              
BURLINGTON     CLOUDY    36  34  92 E5        29.59F                  
$$

MAZ007-012-024-CTZ003-RIZ002-NYZ038-NYZ072-221100-
SOUTHERN NEW ENGLAND AND NY
  
CITY           SKY/WX    TMP DP  RH WIND       PRES   REMARKS
BOSTON         LGT RAIN  41  38  89 NE26G33   29.46F FOG              
WORCESTER      LGT RAIN  33  32  96 NE12G23   29.42F FOG              
NANTUCKET      LGT RAIN  44  43  96 E18G28    29.30F FOG              
HARTFORD       LGT RAIN  40  38  93 N13       29.41F FOG              
ALBANY         LGT RAIN  36  32  85 N13       29.50F FOG              
NEW YORK CITY  LGT RAIN  43  41  93 NE21      29.30F FOG              
$$

ANZ081-ANZ082-ANZ150-NHZ014-MEZ023>029-221100-
COASTAL MARINE OBSERVATIONS
  
STATION/POSITION TIME  TEMP    WIND        PRES    WAVE
                       AIR SEA DIR/SP/G            HT/PER
                 (UTC) (F)     (DEG/KT/KT) (MB)    (FT/S)
MOUNT DESERT ROC 0900   37      60/ 23/ 25 1006.9F
MATINICUS ROCK   0900   37      70/ 22/ 24 1005.6F
ISLE OF SHOALS   0900   38      50/ 27/ 29 1001.9F
JEFFREYS LEDGE   0938      40                N/A     6/ 6
CASHES LEDGE BUO 0950   38 40              1001.4F   6/ 6
$$

.............KEY..............
   WCI - WIND CHILL
   TC  - TEMPERATURE IN CELSIUS
   VSB - VISIBILITY IN MILES
   HX  - HEAT INDEX
   FAIR- INDICATES FEW OR NO CLOUDS BELOW 12,000 FT, WITH NO 
         SIGNIFICANT WEATHER AND/OR OBSTRUCTIONS TO VISIBILITY.